| time (UTC) | temp F | wind direction | speed MPH | gust MPH | rain 1hr in | rain 24hr in | rain mn in | humidity % | barometer mb |
| 20260504150142 | 39 | 291 | 2.0 | 10.0 | 0.00 | 0.00 | 0.00 | 66 | 1017.1 |
| 20260504141047 | 37 | 260 | 4.0 | 10.0 | 0.00 | 0.00 | 0.00 | 68 | 1017.0 |
| 20260504140547 | 37 | 313 | 4.0 | 12.0 | 0.00 | 0.00 | 0.00 | 69 | 1016.8 |
| 20260504140130 | 37 | 309 | 6.0 | 13.0 | 0.00 | 0.00 | 0.00 | 69 | 1016.6 |
| 20260504130521 | 36 | 295 | 6.0 | 15.0 | 0.00 | 0.00 | 0.00 | 70 | 1016.3 |
| 20260504120132 | 35 | 195 | 8.0 | 20.0 | 0.00 | 0.00 | 0.00 | 73 | 1016.0 |
| 20260504110526 | 36 | 153 | 9.0 | 18.0 | 0.00 | 0.00 | 0.00 | 71 | 1016.3 |
| 20260504110115 | 36 | 226 | 11.0 | 18.0 | 0.00 | 0.00 | 0.00 | 71 | 1016.3 |
| 20260504100545 | 37 | 309 | 11.0 | 25.0 | 0.00 | 0.00 | 0.00 | 67 | 1015.3 |
| 20260504100117 | 37 | 316 | 10.0 | 25.0 | 0.00 | 0.00 | 0.00 | 66 | 1015.1 |
| 20260504090137 | 39 | 313 | 13.0 | 28.0 | 0.00 | 0.00 | 0.00 | 59 | 1014.4 |
| 20260504081618 | 43 | 302 | 14.0 | 27.0 | 0.00 | 0.00 | 0.00 | 57 | 1014.1 |
| 20260504081044 | 44 | 283 | 8.0 | 23.0 | 0.00 | 0.00 | 0.00 | 55 | 1014.1 |
| 20260504080527 | 44 | 284 | 10.0 | 23.0 | 0.00 | 0.00 | 0.00 | 53 | 1014.0 |
| 20260504080125 | 45 | 297 | 10.0 | 21.0 | 0.00 | 0.00 | 0.00 | 51 | 1014.0 |
| 20260504070108 | 50 | 145 | 0.0 | 6.0 | 0.00 | 0.00 | 0.00 | 39 | 1012.8 |
| 20260504050522 | 52 | 246 | 2.0 | 5.0 | 0.00 | 0.00 | 0.00 | 31 | 1013.3 |
| 20260504050133 | 52 | 210 | 0.0 | 7.0 | 0.00 | 0.00 | 0.00 | 30 | 1013.3 |
| 20260504045526 | 52 | 244 | 2.0 | 7.0 | 0.00 | 0.00 | 0.00 | 29 | 1013.4 |
| 20260504045023 | 52 | 282 | 0.0 | 5.0 | 0.00 | 0.00 | 0.00 | 31 | 1013.3 |
| 20260504044623 | 52 | 274 | 1.0 | 5.0 | 0.00 | 0.00 | 0.00 | 29 | 1013.4 |
| 20260504044025 | 52 | 255 | 0.0 | 4.0 | 0.00 | 0.00 | 0.00 | 30 | 1013.4 |
| 20260504043536 | 52 | 311 | 1.0 | 9.0 | 0.00 | 0.00 | 0.00 | 29 | 1013.3 |
| 20260504043132 | 51 | 290 | 2.0 | 9.0 | 0.00 | 0.00 | 0.00 | 32 | 1013.3 |
| 20260504042519 | 51 | 253 | 1.0 | 4.0 | 0.00 | 0.00 | 0.00 | 34 | 1013.3 |
| 20260504042033 | 50 | 315 | 1.0 | 4.0 | 0.00 | 0.00 | 0.00 | 34 | 1013.3 |
| 20260504041608 | 50 | 249 | 0.0 | 3.0 | 0.00 | 0.00 | 0.00 | 36 | 1013.3 |
| 20260504041031 | 49 | 138 | 0.0 | 3.0 | 0.00 | 0.00 | 0.00 | 35 | 1013.3 |
| 20260504040513 | 50 | 150 | 0.0 | 3.0 | 0.00 | 0.00 | 0.00 | 35 | 1013.3 |
| 20260504040138 | 51 | 150 | 0.0 | 2.0 | 0.00 | 0.00 | 0.00 | 34 | 1013.4 |
| 20260504035527 | 51 | 131 | 0.0 | 2.0 | 0.00 | 0.00 | 0.00 | 32 | 1013.3 |
| 20260504035036 | 51 | 122 | 0.0 | 2.0 | 0.00 | 0.00 | 0.00 | 32 | 1013.3 |
| 20260504034615 | 51 | 118 | 0.0 | 2.0 | 0.00 | 0.00 | 0.00 | 31 | 1013.3 |
| 20260504034026 | 51 | 136 | 0.0 | 2.0 | 0.00 | 0.00 | 0.00 | 34 | 1013.3 |
| 20260504033527 | 51 | 134 | 1.0 | 3.0 | 0.00 | 0.00 | 0.00 | 32 | 1013.3 |
| 20260504033133 | 51 | 111 | 0.0 | 3.0 | 0.00 | 0.00 | 0.00 | 33 | 1013.3 |
| 20260504032514 | 52 | 144 | 0.0 | 3.0 | 0.00 | 0.00 | 0.00 | 33 | 1013.1 |
| 20260504032047 | 52 | 134 | 0.0 | 3.0 | 0.00 | 0.00 | 0.00 | 33 | 1013.1 |
| 20260504031633 | 53 | 258 | 0.0 | 3.0 | 0.00 | 0.00 | 0.00 | 31 | 1013.1 |
| 20260504031023 | 53 | 120 | 0.0 | 4.0 | 0.00 | 0.00 | 0.00 | 31 | 1013.2 |
| 20260504030523 | 53 | 133 | 1.0 | 4.0 | 0.00 | 0.00 | 0.00 | 32 | 1013.1 |
| 20260504030115 | 53 | 289 | 1.0 | 5.0 | 0.00 | 0.00 | 0.00 | 31 | 1013.0 |
| 20260504025523 | 54 | 147 | 1.0 | 5.0 | 0.00 | 0.00 | 0.00 | 33 | 1013.1 |
| 20260504025032 | 54 | 300 | 1.0 | 6.0 | 0.00 | 0.00 | 0.00 | 32 | 1013.0 |
| 20260504024626 | 54 | 105 | 0.0 | 6.0 | 0.00 | 0.00 | 0.00 | 31 | 1013.0 |
| 20260504024024 | 54 | 153 | 1.0 | 4.0 | 0.00 | 0.00 | 0.00 | 32 | 1012.9 |
| 20260504023544 | 55 | 294 | 0.0 | 6.0 | 0.00 | 0.00 | 0.00 | 31 | 1012.9 |
| 20260504023113 | 55 | 166 | 1.0 | 6.0 | 0.00 | 0.00 | 0.00 | 30 | 1012.7 |
| 20260504022520 | 55 | 89 | 0.0 | 4.0 | 0.00 | 0.00 | 0.00 | 31 | 1012.8 |
| 20260504022042 | 56 | 150 | 1.0 | 4.0 | 0.00 | 0.00 | 0.00 | 31 | 1012.9 |
| 20260504021620 | 56 | 240 | 1.0 | 4.0 | 0.00 | 0.00 | 0.00 | 31 | 1012.8 |
| 20260504021037 | 56 | 358 | 0.0 | 6.0 | 0.00 | 0.00 | 0.00 | 31 | 1012.9 |
| 20260504020521 | 57 | 126 | 1.0 | 6.0 | 0.00 | 0.00 | 0.00 | 32 | 1012.9 |
| 20260504020037 | 57 | 272 | 1.0 | 5.0 | 0.00 | 0.00 | 0.00 | 30 | 1012.9 |
| 20260504015516 | 58 | 250 | 1.0 | 4.0 | 0.00 | 0.00 | 0.00 | 30 | 1012.7 |
| 20260504015027 | 58 | 281 | 1.0 | 4.0 | 0.00 | 0.00 | 0.00 | 29 | 1012.7 |
| 20260504014616 | 59 | 144 | 1.0 | 10.0 | 0.00 | 0.00 | 0.00 | 29 | 1012.9 |
| 20260504014033 | 59 | 67 | 2.0 | 10.0 | 0.00 | 0.00 | 0.00 | 30 | 1012.9 |
| 20260504013525 | 59 | 144 | 3.0 | 9.0 | 0.00 | 0.00 | 0.00 | 29 | 1013.0 |
| 20260504013110 | 59 | 288 | 2.0 | 8.0 | 0.00 | 0.00 | 0.00 | 30 | 1013.1 |
| 20260504012537 | 60 | 246 | 1.0 | 7.0 | 0.00 | 0.00 | 0.00 | 30 | 1013.1 |
| 20260504012023 | 60 | 109 | 2.0 | 7.0 | 0.00 | 0.00 | 0.00 | 29 | 1013.2 |
| 20260504011542 | 61 | 63 | 2.0 | 9.0 | 0.00 | 0.00 | 0.00 | 30 | 1013.3 |
| 20260504011021 | 61 | 141 | 4.0 | 9.0 | 0.00 | 0.00 | 0.00 | 29 | 1013.3 |
| 20260504010525 | 61 | 179 | 2.0 | 8.0 | 0.00 | 0.00 | 0.00 | 30 | 1013.3 |
| 20260504010156 | 61 | 238 | 2.0 | 7.0 | 0.00 | 0.00 | 0.00 | 32 | 1013.2 |
| 20260504005530 | 61 | 308 | 0.0 | 7.0 | 0.00 | 0.00 | 0.00 | 31 | 1013.5 |
| 20260504005030 | 61 | 264 | 2.0 | 7.0 | 0.00 | 0.00 | 0.00 | 31 | 1013.4 |
| 20260504004607 | 61 | 150 | 3.0 | 11.0 | 0.00 | 0.00 | 0.00 | 30 | 1013.5 |
| 20260504004024 | 62 | 205 | 3.0 | 11.0 | 0.00 | 0.00 | 0.00 | 31 | 1013.5 |
| 20260504003531 | 62 | 301 | 2.0 | 8.0 | 0.00 | 0.00 | 0.00 | 31 | 1013.5 |
| 20260504003100 | 62 | 160 | 2.0 | 9.0 | 0.00 | 0.00 | 0.00 | 30 | 1013.6 |
| 20260504002519 | 62 | 111 | 1.0 | 9.0 | 0.00 | 0.00 | 0.00 | 29 | 1013.5 |
| 20260504002044 | 62 | 111 | 1.0 | 7.0 | 0.00 | 0.00 | 0.00 | 29 | 1013.6 |
| 20260504001629 | 63 | 326 | 2.0 | 11.0 | 0.00 | 0.00 | 0.00 | 29 | 1013.7 |
| 20260504001040 | 62 | 101 | 5.0 | 11.0 | 0.00 | 0.00 | 0.00 | 30 | 1013.6 |
| 20260504000525 | 62 | 300 | 2.0 | 16.0 | 0.00 | 0.00 | 0.00 | 29 | 1013.7 |
| 20260504000153 | 63 | 297 | 4.0 | 16.0 | 0.00 | 0.00 | 0.00 | 29 | 1013.6 |
| 20260503235543 | 63 | 68 | 2.0 | 7.0 | 0.00 | 0.00 | 0.00 | 28 | 1013.6 |
| 20260503235040 | 63 | 269 | 3.0 | 10.0 | 0.00 | 0.00 | 0.00 | 28 | 1013.6 |
| 20260503234546 | 63 | 134 | 4.0 | 10.0 | 0.00 | 0.00 | 0.00 | 30 | 1013.6 |
| 20260503234024 | 63 | 276 | 1.0 | 8.0 | 0.00 | 0.00 | 0.00 | 30 | 1013.7 |
| 20260503233523 | 63 | 297 | 2.0 | 13.0 | 0.00 | 0.00 | 0.00 | 28 | 1013.7 |
| 20260503233124 | 63 | 276 | 5.0 | 13.0 | 0.00 | 0.00 | 0.00 | 27 | 1013.9 |
| 20260503232524 | 63 | 269 | 2.0 | 13.0 | 0.00 | 0.00 | 0.00 | 27 | 1013.8 |
| 20260503232031 | 63 | 252 | 5.0 | 13.0 | 0.00 | 0.00 | 0.00 | 25 | 1013.7 |
| 20260503231604 | 64 | 240 | 3.0 | 10.0 | 0.00 | 0.00 | 0.00 | 25 | 1014.0 |
| 20260503231048 | 64 | 300 | 4.0 | 9.0 | 0.00 | 0.00 | 0.00 | 25 | 1014.0 |
| 20260503230527 | 63 | 275 | 2.0 | 9.0 | 0.00 | 0.00 | 0.00 | 24 | 1014.3 |
| 20260503230142 | 63 | 346 | 3.0 | 12.0 | 0.00 | 0.00 | 0.00 | 23 | 1014.3 |
| 20260503225532 | 63 | 264 | 3.0 | 12.0 | 0.00 | 0.00 | 0.00 | 22 | 1014.1 |
| 20260503225022 | 63 | 301 | 2.0 | 12.0 | 0.00 | 0.00 | 0.00 | 24 | 1014.1 |
| 20260503224629 | 63 | 155 | 4.0 | 12.0 | 0.00 | 0.00 | 0.00 | 25 | 1014.2 |
| 20260503224019 | 64 | 296 | 2.0 | 9.0 | 0.00 | 0.00 | 0.00 | 24 | 1014.3 |
| 20260503223526 | 64 | 260 | 2.0 | 10.0 | 0.00 | 0.00 | 0.00 | 26 | 1014.4 |
| 20260503223126 | 64 | 276 | 4.0 | 10.0 | 0.00 | 0.00 | 0.00 | 26 | 1014.4 |
| 20260503222535 | 64 | 216 | 2.0 | 14.0 | 0.00 | 0.00 | 0.00 | 25 | 1014.3 |
| 20260503222022 | 63 | 160 | 5.0 | 14.0 | 0.00 | 0.00 | 0.00 | 26 | 1014.5 |
| 20260503221626 | 63 | 245 | 3.0 | 11.0 | 0.00 | 0.00 | 0.00 | 26 | 1014.7 |
| 20260503221046 | 63 | 267 | 2.0 | 13.0 | 0.00 | 0.00 | 0.00 | 27 | 1014.8 |
| 20260503220522 | 63 | 251 | 5.0 | 13.0 | 0.00 | 0.00 | 0.00 | 26 | 1014.7 |
| 20260503220143 | 63 | 256 | 4.0 | 10.0 | 0.00 | 0.00 | 0.00 | 28 | 1014.7 |
| 20260503215525 | 63 | 147 | 4.0 | 10.0 | 0.00 | 0.00 | 0.00 | 29 | 1014.9 |
| 20260503215026 | 63 | 279 | 4.0 | 8.0 | 0.00 | 0.00 | 0.00 | 29 | 1015.0 |
| 20260503214548 | 63 | 74 | 3.0 | 6.0 | 0.00 | 0.00 | 0.00 | 33 | 1014.9 |
| 20260503214035 | 63 | 288 | 1.0 | 10.0 | 0.00 | 0.00 | 0.00 | 34 | 1015.1 |
| 20260503213522 | 64 | 255 | 2.0 | 10.0 | 0.00 | 0.00 | 0.00 | 33 | 1015.3 |
| 20260503213037 | 64 | 287 | 2.0 | 8.0 | 0.00 | 0.00 | 0.00 | 30 | 1015.3 |
| 20260503212527 | 64 | 254 | 3.0 | 10.0 | 0.00 | 0.00 | 0.00 | 34 | 1015.4 |
| 20260503212027 | 64 | 250 | 3.0 | 9.0 | 0.00 | 0.00 | 0.00 | 35 | 1015.5 |
| 20260503211629 | 64 | 24 | 3.0 | 8.0 | 0.00 | 0.00 | 0.00 | 35 | 1015.5 |
| 20260503211029 | 64 | 228 | 3.0 | 8.0 | 0.00 | 0.00 | 0.00 | 37 | 1015.5 |
| 20260503210527 | 64 | 220 | 2.0 | 6.0 | 0.00 | 0.00 | 0.00 | 36 | 1015.8 |
| 20260503210133 | 63 | 285 | 2.0 | 7.0 | 0.00 | 0.00 | 0.00 | 37 | 1015.7 |
| 20260503205522 | 63 | 338 | 3.0 | 7.0 | 0.00 | 0.00 | 0.00 | 34 | 1015.8 |
| 20260503205023 | 63 | 253 | 2.0 | 7.0 | 0.00 | 0.00 | 0.00 | 35 | 1016.0 |
| 20260503204550 | 63 | 293 | 2.0 | 7.0 | 0.00 | 0.00 | 0.00 | 37 | 1015.9 |
| 20260503204043 | 63 | 295 | 1.0 | 7.0 | 0.00 | 0.00 | 0.00 | 39 | 1016.1 |
| 20260503203521 | 63 | 148 | 3.0 | 8.0 | 0.00 | 0.00 | 0.00 | 38 | 1016.1 |
| 20260503203116 | 63 | 278 | 3.0 | 13.0 | 0.00 | 0.00 | 0.00 | 38 | 1016.1 |
| 20260503202520 | 63 | 127 | 3.0 | 10.0 | 0.00 | 0.00 | 0.00 | 35 | 1016.3 |
| 20260503202040 | 63 | 63 | 1.0 | 10.0 | 0.00 | 0.00 | 0.00 | 36 | 1016.1 |
| 20260503201554 | 63 | 214 | 2.0 | 12.0 | 0.00 | 0.00 | 0.00 | 38 | 1016.3 |
| 20260503201026 | 62 | 160 | 2.0 | 12.0 | 0.00 | 0.00 | 0.00 | 39 | 1016.3 |
| 20260503200549 | 62 | 255 | 1.0 | 11.0 | 0.00 | 0.00 | 0.00 | 39 | 1016.5 |
| 20260503200105 | 61 | 306 | 2.0 | 11.0 | 0.00 | 0.00 | 0.00 | 40 | 1016.3 |
| 20260503195541 | 61 | 131 | 4.0 | 12.0 | 0.00 | 0.00 | 0.00 | 40 | 1016.5 |
| 20260503195035 | 61 | 91 | 1.0 | 14.0 | 0.00 | 0.00 | 0.00 | 39 | 1016.5 |
| 20260503194627 | 62 | 168 | 4.0 | 14.0 | 0.00 | 0.00 | 0.00 | 38 | 1016.7 |
| 20260503194035 | 62 | 256 | 6.0 | 14.0 | 0.00 | 0.00 | 0.00 | 35 | 1016.8 |
| 20260503193542 | 62 | 300 | 1.0 | 10.0 | 0.00 | 0.00 | 0.00 | 37 | 1016.7 |
| 20260503193050 | 62 | 60 | 2.0 | 9.0 | 0.00 | 0.00 | 0.00 | 37 | 1016.9 |
| 20260503192530 | 63 | 70 | 2.0 | 7.0 | 0.00 | 0.00 | 0.00 | 36 | 1016.9 |
| 20260503192032 | 62 | 98 | 2.0 | 8.0 | 0.00 | 0.00 | 0.00 | 42 | 1016.9 |
| 20260503191610 | 61 | 240 | 3.0 | 8.0 | 0.00 | 0.00 | 0.00 | 41 | 1016.9 |
| 20260503191031 | 61 | 292 | 2.0 | 11.0 | 0.00 | 0.00 | 0.00 | 40 | 1017.0 |
| 20260503190533 | 61 | 342 | 3.0 | 11.0 | 0.00 | 0.00 | 0.00 | 40 | 1017.0 |
| 20260503190127 | 61 | 250 | 1.0 | 6.0 | 0.00 | 0.00 | 0.00 | 39 | 1017.1 |
| 20260503185539 | 61 | 244 | 2.0 | 6.0 | 0.00 | 0.00 | 0.00 | 42 | 1017.2 |
| 20260503185035 | 60 | 136 | 1.0 | 9.0 | 0.00 | 0.00 | 0.00 | 41 | 1017.3 |
| 20260503184612 | 60 | 127 | 3.0 | 9.0 | 0.00 | 0.00 | 0.00 | 40 | 1017.2 |
| 20260503184049 | 60 | 79 | 2.0 | 6.0 | 0.00 | 0.00 | 0.00 | 41 | 1017.3 |
| 20260503183536 | 60 | 18 | 3.0 | 6.0 | 0.00 | 0.00 | 0.00 | 39 | 1017.4 |
| 20260503183112 | 61 | 168 | 1.0 | 6.0 | 0.00 | 0.00 | 0.00 | 40 | 1017.5 |
| 20260503182539 | 60 | 289 | 1.0 | 9.0 | 0.00 | 0.00 | 0.00 | 44 | 1017.4 |
| 20260503182018 | 60 | 134 | 4.0 | 9.0 | 0.00 | 0.00 | 0.00 | 42 | 1017.5 |
| 20260503181614 | 60 | 266 | 2.0 | 7.0 | 0.00 | 0.00 | 0.00 | 42 | 1017.6 |
| 20260503181045 | 60 | 214 | 2.0 | 8.0 | 0.00 | 0.00 | 0.00 | 42 | 1017.7 |
| 20260503180524 | 59 | 245 | 2.0 | 8.0 | 0.00 | 0.00 | 0.00 | 42 | 1017.8 |
| 20260503180110 | 59 | 244 | 2.0 | 10.0 | 0.00 | 0.00 | 0.00 | 44 | 1017.7 |
| 20260503175529 | 59 | 179 | 2.0 | 10.0 | 0.00 | 0.00 | 0.00 | 44 | 1017.9 |
| 20260503175020 | 59 | 261 | 3.0 | 9.0 | 0.00 | 0.00 | 0.00 | 43 | 1017.9 |
| 20260503174634 | 59 | 253 | 4.0 | 9.0 | 0.00 | 0.00 | 0.00 | 44 | 1018.0 |
| 20260503174020 | 59 | 51 | 2.0 | 8.0 | 0.00 | 0.00 | 0.00 | 43 | 1018.1 |
| 20260503173539 | 59 | 247 | 2.0 | 7.0 | 0.00 | 0.00 | 0.00 | 43 | 1018.1 |
| 20260503173108 | 59 | 240 | 3.0 | 7.0 | 0.00 | 0.00 | 0.00 | 44 | 1018.2 |
| 20260503172525 | 60 | 255 | 2.0 | 6.0 | 0.00 | 0.00 | 0.00 | 44 | 1018.3 |
| 20260503172033 | 59 | 276 | 2.0 | 6.0 | 0.00 | 0.00 | 0.00 | 45 | 1018.3 |
| 20260503171633 | 58 | 275 | 1.0 | 9.0 | 0.00 | 0.00 | 0.00 | 44 | 1018.3 |
| 20260503171047 | 58 | 106 | 2.0 | 9.0 | 0.00 | 0.00 | 0.00 | 50 | 1018.3 |
| 20260503170519 | 59 | 284 | 2.0 | 5.0 | 0.00 | 0.00 | 0.00 | 46 | 1018.3 |
| 20260503160123 | 55 | 99 | 3.0 | 6.0 | 0.00 | 0.00 | 0.00 | 52 | 1018.5 |
| 20260503150545 | 53 | 57 | 1.0 | 5.0 | 0.00 | 0.00 | 0.00 | 53 | 1018.5 |